User: anonymous   Login
Location: Aula-Vintri
(58.3875°N, 22.4322°E)
Time: 19:25:32
(UTC+00:00)
Language:

Cosmos 1932 - Orbit

View from above orbital plane
View from above orbital plane
View from above satellite
View from above satellite

Ground track
Ground track

The orbit data is extracted from the following two-line orbital elements,

1 18957U 88019A   19338.87442575 -.00000075 +00000-0 +11522-4 0  9990
2 18957 065.0424 138.7254 0056555 306.6318 052.9547 13.79681969599921
Epoch (UTC): 04 December 2019 20:59:10
Eccentricity: 0.0056555
inclination: 65.0424°
perigee height: 923 km
apogee height: 1006 km
right ascension of ascending node: 138.7254°
argument of perigee: 306.6318°
revolutions per day: 13.79681969
mean anomaly at epoch: 52.9547°
orbit number at epoch: 59992

The dashed part of the orbit path shows where the satellite is in the earth's shadow,  

DLR